Track LEMUR 2 HANCOM-1 now! 10-day predictions LEMUR 2 HANCOM-1 is classified as:
1 52740U 22057J 22186.84683354 .00004464 00000-0 26166-3 0 9996 2 52740 97.5305 301.2960 0012695 113.7766 246.4797 15.12224953 6216